Date,TemperatureHighF,TemperatureAvgF,TemperatureLowF,DewpointHighF,DewpointAvgF,DewpointLowF,HumidityHigh,HumidityAvg,HumidityLow,PressureMaxIn,PressureMinIn,WindSpeedMaxMPH,WindSpeedAvgMPH,GustSpeedMaxMPH,PrecipitationSumIn
2013-3-1,33.2,29.6,26.7,28.0,24.4,19.2,95,81,67,30.04,29.89,7,1,10,0.03
2013-3-2,29.4,26.9,25.1,24.5,20.0,16.7,89,75,68,30.05,30.00,10,2,12,0.01
2013-3-3,32.7,24.2,14.6,19.4,13.9,6.8,86,67,36,30.02,29.97,11,1,11,0.01
2013-3-4,35.6,26.4,13.6,28.3,19.6,10.9,93,77,54,30.04,29.89,6,1,6,0.00
2013-3-5,31.9,29.8,27.5,29.6,28.0,26.4,97,93,80,29.89,29.65,8,1,9,0.04
2013-3-6,32.9,30.6,27.8,30.1,27.8,25.3,95,89,85,30.18,29.81,11,2,13,0.11
2013-3-7,39.5,32.2,24.7,27.8,25.0,21.6,90,76,53,30.31,30.17,6,1,6,0.26
2013-3-8,38.9,28.8,15.4,24.4,20.8,13.5,96,74,52,30.40,30.23,5,1,7,0.00
2013-3-9,42.3,35.7,26.6,34.2,28.5,20.0,83,75,64,30.23,29.77,12,2,12,0.01
2013-3-10,53.1,45.8,37.3,48.5,41.1,32.8,96,84,68,29.77,29.54,10,1,12,0.34
2013-3-11,50.2,40.8,32.1,49.0,39.4,29.6,100,95,88,29.68,29.45,15,3,15,0.08
2013-3-12,37.3,31.4,27.5,30.6,25.7,20.0,95,80,56,29.90,29.69,13,3,14,0.00
2013-3-13,32.9,27.1,23.3,22.1,15.7,11.3,88,63,41,30.23,29.90,14,3,15,0.01
2013-3-14,39.3,30.3,21.9,30.8,20.6,12.1,96,68,40,30.22,29.99,10,1,11,0.00
2013-3-15,46.7,36.6,29.0,40.6,33.5,27.6,99,89,64,29.99,29.60,6,1,6,0.15
2013-3-16,36.8,32.8,29.4,36.8,30.3,21.5,100,91,72,30.00,29.54,11,2,14,0.01
2013-3-17,36.3,31.4,28.4,23.9,21.5,19.0,77,67,56,30.09,29.91,11,2,13,0.00
2013-3-18,34.7,30.2,23.2,33.5,26.9,12.9,99,88,63,29.91,29.49,15,3,17,0.05
2013-3-19,35.0,26.0,18.4,17.0,13.1,9.8,75,58,41,29.98,29.70,18,5,19,0.00
2013-3-20,26.1,22.0,18.0,14.1,8.1,3.4,79,55,40,29.96,29.91,13,3,14,0.00
2013-3-21,33.1,23.2,14.4,15.5,10.3,4.6,77,58,41,29.94,29.89,9,2,11,0.00
2013-3-22,41.9,28.2,16.7,20.4,15.7,13.0,87,62,34,29.96,29.89,9,1,9,0.00
2013-3-23,41.1,31.0,22.1,25.7,22.0,18.6,90,71,47,30.02,29.90,7,1,10,0.00
2013-3-24,36.9,31.8,27.9,28.8,24.1,21.6,95,74,55,29.91,29.49,12,2,14,0.00
2013-3-25,36.5,32.2,27.8,29.6,27.1,24.8,95,82,66,29.93,29.53,13,3,17,0.12
2013-3-26,41.2,34.7,30.3,30.3,27.4,21.0,96,76,49,30.13,29.93,10,2,14,0.17
2013-3-27,43.2,35.3,28.1,27.9,23.4,17.2,85,64,38,30.21,30.13,8,1,9,0.00
2013-3-28,51.0,36.3,23.9,24.2,20.6,17.7,85,57,28,30.23,30.16,6,1,9,0.00
2013-3-29,53.2,39.7,26.7,29.6,20.5,15.9,83,50,27,30.20,30.10,6,1,7,0.00
2013-3-30,57.8,43.3,24.8,36.7,28.0,17.7,76,56,38,30.13,29.74,12,1,14,0.00
2013-3-31,58.9,48.8,38.5,44.3,36.3,24.7,98,65,37,29.74,29.57,13,3,18,0.01